DLH99E EDDF-LPPD

Flight info

Callsign DLH99E
Flight time N/A
Altitude 35000
Route SOBRA2L SOBRA Y180 DIK UN857 TOLVU DCT RAPOR DCT GIMER DCT ESTOC UT300 PON UN872 ERIGA DCT FUJTI DCT ATLEN DCT GESPU DCT LUTAK/M080F350 DCT 36N020W DCT ETROX
Aircraft A21N/M-SDE2E3FGHIRWXY/LB1

Departure

Time N/A
Airport Frankfurt Main Airport (EDDF)

Arrival

Time 2026-05-01 15:23
Airport João Paulo II Airport (LPPD)
Time Latitude Longitude Altitude Speed Heading
2026-05-01 14:35 36.12985 -20.39343 35017 ft 384 kts 288°
2026-05-01 14:35 36.13983 -20.42385 35020 ft 383 kts 288°
2026-05-01 14:36 36.15980 -20.48473 35015 ft 383 kts 288°
2026-05-01 14:36 36.17984 -20.54592 35010 ft 382 kts 288°
2026-05-01 14:37 36.19967 -20.60663 35012 ft 383 kts 288°
2026-05-01 14:37 36.21965 -20.66791 35010 ft 382 kts 288°
2026-05-01 14:38 36.23956 -20.72913 35005 ft 383 kts 287°
2026-05-01 14:38 36.25938 -20.79011 35004 ft 382 kts 287°
2026-05-01 14:39 36.27923 -20.85138 35005 ft 382 kts 288°
2026-05-01 14:39 36.29899 -20.91250 35000 ft 382 kts 288°
2026-05-01 14:40 36.31856 -20.97311 35000 ft 382 kts 287°
2026-05-01 14:40 36.33815 -21.03391 34999 ft 382 kts 287°
2026-05-01 14:41 36.35782 -21.09516 34999 ft 382 kts 287°
2026-05-01 14:41 36.37740 -21.15625 34997 ft 382 kts 287°
2026-05-01 14:42 36.39702 -21.21752 34997 ft 383 kts 288°
2026-05-01 14:42 36.41668 -21.27881 34996 ft 383 kts 288°
2026-05-01 14:43 36.43629 -21.34026 35004 ft 383 kts 288°
2026-05-01 14:43 36.45579 -21.40146 34998 ft 383 kts 288°
2026-05-01 14:44 36.47525 -21.46276 34995 ft 384 kts 288°
2026-05-01 14:44 36.50450 -21.55521 35001 ft 383 kts 288°
2026-05-01 14:45 36.53371 -21.64779 35001 ft 384 kts 288°
2026-05-01 14:46 36.55323 -21.70980 35004 ft 384 kts 287°
2026-05-01 14:46 36.58232 -21.80252 35005 ft 385 kts 288°
2026-05-01 14:47 36.60161 -21.86418 34999 ft 385 kts 288°
2026-05-01 14:48 36.63057 -21.95697 35004 ft 386 kts 287°
2026-05-01 14:48 36.65958 -22.05028 35007 ft 386 kts 288°
2026-05-01 14:49 36.69809 -22.17448 35011 ft 386 kts 288°
2026-05-01 14:50 36.73649 -22.29898 35012 ft 386 kts 288°
2026-05-01 14:51 36.76530 -22.39272 35006 ft 386 kts 288°
2026-05-01 14:52 36.79397 -22.48630 35008 ft 387 kts 288°
2026-05-01 14:53 36.82267 -22.58028 35007 ft 387 kts 288°
2026-05-01 14:53 36.84159 -22.64244 35014 ft 386 kts 288°
2026-05-01 14:54 36.86069 -22.70543 35010 ft 387 kts 288°
2026-05-01 14:54 36.87958 -22.76773 35013 ft 386 kts 288°
2026-05-01 14:55 36.89854 -22.83035 35023 ft 387 kts 288°
2026-05-01 14:55 36.91750 -22.89320 35022 ft 387 kts 287°
2026-05-01 14:56 36.93639 -22.95598 35007 ft 387 kts 288°
2026-05-01 14:56 36.95520 -23.01857 35004 ft 387 kts 288°
2026-05-01 14:57 36.97408 -23.08152 34999 ft 388 kts 288°
2026-05-01 14:57 37.00235 -23.17609 35004 ft 389 kts 288°
2026-05-01 14:58 37.02117 -23.23932 34994 ft 389 kts 288°
2026-05-01 14:58 37.03996 -23.30246 34987 ft 390 kts 288°
2026-05-01 14:59 37.05883 -23.36609 34994 ft 390 kts 288°
2026-05-01 14:59 37.07757 -23.42940 34992 ft 391 kts 288°
2026-05-01 15:00 37.10585 -23.52522 34995 ft 392 kts 288°
2026-05-01 15:01 37.12472 -23.58935 34996 ft 393 kts 288°
2026-05-01 15:01 37.12627 -23.59462 34997 ft 393 kts 288°
2026-05-01 15:02 37.13378 -23.62019 34991 ft 393 kts 288°
2026-05-01 15:02 37.14004 -23.64149 34840 ft 393 kts 288°
2026-05-01 15:02 37.15255 -23.68417 34539 ft 391 kts 288°
2026-05-01 15:02 37.16177 -23.71568 34313 ft 389 kts 288°
2026-05-01 15:03 37.17102 -23.74733 33990 ft 387 kts 288°
2026-05-01 15:03 37.18021 -23.77874 33507 ft 384 kts 288°
2026-05-01 15:03 37.18947 -23.81044 32924 ft 385 kts 288°
2026-05-01 15:03 37.19857 -23.84171 32252 ft 386 kts 288°
2026-05-01 15:04 37.20778 -23.87334 31507 ft 388 kts 288°
2026-05-01 15:04 37.21694 -23.90482 30753 ft 390 kts 288°
2026-05-01 15:04 37.22615 -23.93653 29987 ft 392 kts 288°
2026-05-01 15:04 37.23548 -23.96878 29235 ft 393 kts 288°
2026-05-01 15:05 37.24474 -24.00077 28410 ft 397 kts 289°
2026-05-01 15:05 37.25421 -24.03364 27465 ft 403 kts 289°
2026-05-01 15:05 37.26376 -24.06678 26468 ft 409 kts 290°
2026-05-01 15:05 37.27340 -24.10020 25297 ft 418 kts 290°
2026-05-01 15:06 37.28326 -24.13439 24519 ft 417 kts 290°
2026-05-01 15:06 37.29309 -24.16843 23872 ft 414 kts 291°
2026-05-01 15:06 37.30279 -24.20212 23218 ft 411 kts 291°
2026-05-01 15:06 37.31249 -24.23584 22569 ft 409 kts 291°
2026-05-01 15:07 37.32211 -24.26942 21853 ft 408 kts 291°
2026-05-01 15:07 37.33165 -24.30267 21166 ft 407 kts 292°
2026-05-01 15:07 37.34121 -24.33604 20450 ft 406 kts 292°
2026-05-01 15:07 37.35073 -24.36926 19781 ft 405 kts 292°
2026-05-01 15:08 37.36016 -24.40232 19104 ft 404 kts 292°
2026-05-01 15:08 37.36950 -24.43511 18414 ft 403 kts 292°
2026-05-01 15:08 37.37893 -24.46818 17744 ft 402 kts 292°
2026-05-01 15:08 37.38832 -24.50112 17105 ft 400 kts 292°
2026-05-01 15:09 37.39764 -24.53383 16491 ft 397 kts 292°
2026-05-01 15:09 37.40681 -24.56611 15909 ft 394 kts 292°
2026-05-01 15:09 37.41603 -24.59863 15291 ft 392 kts 292°
2026-05-01 15:09 37.42512 -24.63069 14677 ft 390 kts 292°
2026-05-01 15:10 37.43415 -24.66260 14087 ft 388 kts 291°
2026-05-01 15:10 37.45197 -24.72576 12926 ft 383 kts 291°
2026-05-01 15:10 37.46082 -24.75716 12350 ft 380 kts 291°
2026-05-01 15:11 37.46960 -24.78839 11795 ft 377 kts 291°
2026-05-01 15:11 37.48663 -24.84913 11109 ft 358 kts 291°
2026-05-01 15:11 37.49475 -24.87810 10901 ft 346 kts 291°
2026-05-01 15:12 37.50258 -24.90605 10703 ft 334 kts 291°
2026-05-01 15:12 37.51741 -24.95909 10357 ft 310 kts 291°
2026-05-01 15:12 37.52445 -24.98430 10207 ft 299 kts 292°
2026-05-01 15:13 37.54424 -25.05520 9358 ft 283 kts 292°
2026-05-01 15:14 37.55718 -25.10159 8620 ft 278 kts 292°
2026-05-01 15:14 37.56357 -25.12460 8252 ft 276 kts 292°
2026-05-01 15:14 37.57610 -25.16973 7522 ft 272 kts 291°
2026-05-01 15:15 37.58847 -25.21435 6830 ft 267 kts 292°
2026-05-01 15:15 37.60287 -25.25640 6220 ft 259 kts 296°
2026-05-01 15:16 37.61690 -25.29786 5588 ft 254 kts 295°
2026-05-01 15:16 37.62941 -25.33737 5289 ft 237 kts 294°
2026-05-01 15:17 37.64117 -25.37537 4781 ft 227 kts 294°
2026-05-01 15:18 37.65771 -25.42890 4173 ft 204 kts 294°
2026-05-01 15:18 37.66269 -25.44494 4038 ft 189 kts 294°
2026-05-01 15:19 37.67672 -25.48990 3394 ft 182 kts 294°
2026-05-01 15:19 37.68558 -25.51827 2939 ft 162 kts 294°
2026-05-01 15:19 37.68966 -25.53130 2716 ft 159 kts 294°
2026-05-01 15:20 37.69747 -25.55619 2299 ft 147 kts 293°
2026-05-01 15:20 37.70124 -25.56820 2113 ft 146 kts 293°
2026-05-01 15:20 37.70495 -25.57998 1930 ft 146 kts 293°
2026-05-01 15:21 37.70868 -25.59186 1742 ft 145 kts 293°
2026-05-01 15:21 37.71237 -25.60361 1553 ft 145 kts 293°
2026-05-01 15:21 37.71608 -25.61541 1364 ft 144 kts 292°
2026-05-01 15:21 37.71981 -25.62729 1165 ft 144 kts 293°
2026-05-01 15:22 37.72723 -25.65082 780 ft 143 kts 291°
2026-05-01 15:22 37.73090 -25.66244 590 ft 143 kts 293°
2026-05-01 15:22 37.73458 -25.67405 394 ft 142 kts 291°
2026-05-01 15:23 37.73820 -25.68557 202 ft 139 kts 290°
2026-05-01 15:23 37.74151 -25.69615 210 ft 110 kts 290°
2026-05-01 15:23 37.74370 -25.70316 246 ft 61 kts 292°
2026-05-01 15:23 37.74463 -25.70610 255 ft 14 kts 291°
2026-05-01 15:24 37.74497 -25.70719 257 ft 12 kts 291°
2026-05-01 15:24 37.74531 -25.70825 258 ft 13 kts 292°
2026-05-01 15:24 37.74569 -25.70944 255 ft 16 kts 296°
2026-05-01 15:24 37.74652 -25.71022 258 ft 14 kts 356°
2026-05-01 15:25 37.74710 -25.71022 265 ft 3 kts 360°
2026-05-01 15:25 37.74739 -25.71024 269 ft 7 kts 353°
2026-05-01 15:25 37.74781 -25.71061 271 ft 7 kts 295°
2026-05-01 15:25 37.74804 -25.71127 270 ft 7 kts 303°
2026-05-01 15:26 37.74832 -25.71136 273 ft 0 kts 15°
2026-05-01 15:26 37.74847 -25.71129 275 ft 1 kts 22°
2026-05-01 15:26 37.74862 -25.71121 277 ft 1 kts 22°
2026-05-01 15:26 37.74876 -25.71114 280 ft 1 kts 21°
2026-05-01 15:27 37.74878 -25.71113 280 ft 0 kts 21°
2026-05-01 15:27 37.74877 -25.71113 280 ft 0 kts 21°